NIMBUS 2 DEB, 28617

Orbit data source: Space-Track

NIMBUS 2 DEB, 28617 is space debris in SSO originally from a launch on Sun, 15 May 1966 UTC launched from the Air Force Western Test Range (AFWTR). Debris objects in space refer to the collection of defunct objects orbiting the Earth. Examples of debris include non-operational satellites, rocket bodies, and fragments generated from explosions, collisions, or faulty payload assembly.

Loading next visibility...
Identifier
28617, 1966-040AG
Orbit
SSO
Country
Flag of USUS
Related business
Manufacturer
Unknown
Mission
Spacecraft
Bus & Motor
Unknown
Mass
Unknown
Launch date (UTC)
1966-05-15 (59 years ago)
Launch vehicle
Unknown
Launch site
Air Force Western Test Range (AFWTR)
Object type
Payload
Rocket body
Debris
Shape & HBR
Unknown shape, 0.1 m
Radar Cross Section
Small (<0.1 m²)

Expand to show TLE details & history
Last TLE update: 2 days ago

TLE from 2 days ago
0 NIMBUS 2 DEB
1 28617U 66040AG  25294.09027403  .00005682  00000-0  55057-2 0  9992
2 28617 100.4630 142.9895 0052524 303.2403 207.8830 13.79530713162052
Epoch: 2025-10-21T02:09Z
TLE epoch observation values (Epoch: 2025-10-21T02:09:59.676Z)
Latitude
28.67234°
Longitude
-93.52637°
Altitude
1,003.133 km
Speed
7.336 km/s
True Right ascension
21h 55m 01s
True Declination
28° 31' 57"
Sunlit
Object was in full shadow at epoch
Visualization orbit readout
Latitude
Unknown
Longitude
Unknown
Altitude
Unknown
Speed
Unknown
Apparent Right ascension
Unknown
Apparent Declination
Unknown
Sunlit
N/A
Visualization observer readout
Local Sidereal Time
01:31:52
Azimuth
Unknown
Elevation
Unknown
Doppler factor
Unknown
Orbital elements
Apogee altitude
1,001.413 km
Perigee altitude
924.297 km
Semi-major axis
7,340.992 km
Eccentricity
0.00525
Inclination
100.463°
RAAN
142.9895°
Arg. of periapsis
303.2403°
True anomaly
207.60315°
Mean anomaly
207.883°
Eccentric anomaly
207.74291°
Mean motion
3.45073 °/min
Orbital period
104.33 mins
BSTAR
0.0055057
Loading maneuver chart data...
Computing Atmospheric mass density...
Loading historical data...
Loading historical data...
Loading historical data...
Loading historical data...
Loading historical data...
Loading historical data...
Loading historical data...

Documentation

Showing up to 5 results
|